AXI400 KTTN-CYYZ

Flight info

Callsign AXI400
Flight time 1h 8m
Altitude 43000
Route PTW DCT SARAA DCT RAV DCT PSB DCT WOZEE LINNG3
Aircraft E55P/M-SBDFGHJ2RWY/LB2

Departure

Time 2026-05-06 00:43
Airport Trenton Mercer Airport (KTTN)

Arrival

Time 2026-05-06 01:52
Airport Toronto Pearson International Airport (CYYZ)
Time Latitude Longitude Altitude Speed Heading
2026-05-06 00:30 40.28143 -74.81240 190 ft 0 kts 194°
2026-05-06 00:39 40.28139 -74.81242 191 ft 1 kts 194°
2026-05-06 00:40 40.28117 -74.81249 190 ft 4 kts 194°
2026-05-06 00:40 40.28076 -74.81260 190 ft 6 kts 162°
2026-05-06 00:40 40.28058 -74.81207 189 ft 7 kts 104°
2026-05-06 00:40 40.28044 -74.81140 188 ft 8 kts 106°
2026-05-06 00:41 40.28028 -74.81063 187 ft 9 kts 105°
2026-05-06 00:41 40.28017 -74.80978 187 ft 9 kts 82°
2026-05-06 00:41 40.28054 -74.80906 187 ft 9 kts 47°
2026-05-06 00:41 40.28102 -74.80840 187 ft 9 kts 46°
2026-05-06 00:42 40.28149 -74.80776 188 ft 9 kts 46°
2026-05-06 00:42 40.28174 -74.80702 188 ft 9 kts 122°
2026-05-06 00:42 40.28127 -74.80635 186 ft 10 kts 134°
2026-05-06 00:42 40.28075 -74.80643 186 ft 9 kts 226°
2026-05-06 00:43 40.27887 -74.80902 185 ft 77 kts 224°
2026-05-06 00:43 40.27362 -74.81650 251 ft 134 kts 226°
2026-05-06 00:43 40.26718 -74.82647 785 ft 162 kts 226°
2026-05-06 00:43 40.25907 -74.83897 1398 ft 190 kts 226°
2026-05-06 00:44 40.25097 -74.85139 2629 ft 180 kts 227°
2026-05-06 00:44 40.24221 -74.86484 2973 ft 213 kts 228°
2026-05-06 00:44 40.23169 -74.88088 3388 ft 240 kts 229°
2026-05-06 00:44 40.22140 -74.89726 4547 ft 232 kts 237°
2026-05-06 00:45 40.21709 -74.91725 5601 ft 233 kts 261°
2026-05-06 00:45 40.21593 -74.93796 6606 ft 233 kts 264°
2026-05-06 00:45 40.21574 -74.95915 7520 ft 237 kts 266°
2026-05-06 00:45 40.21587 -74.98093 8362 ft 244 kts 268°
2026-05-06 00:46 40.21611 -75.00332 9227 ft 249 kts 268°
2026-05-06 00:46 40.21641 -75.02608 10121 ft 253 kts 269°
2026-05-06 00:46 40.21674 -75.04914 11017 ft 255 kts 269°
2026-05-06 00:46 40.21705 -75.07248 11823 ft 261 kts 269°
2026-05-06 00:47 40.21737 -75.09778 11834 ft 296 kts 269°
2026-05-06 00:47 40.21770 -75.12599 12106 ft 317 kts 269°
2026-05-06 00:47 40.21806 -75.15517 12965 ft 317 kts 269°
2026-05-06 00:47 40.21841 -75.18359 13863 ft 315 kts 269°
2026-05-06 00:48 40.21876 -75.21269 14633 ft 318 kts 269°
2026-05-06 00:48 40.21910 -75.24214 15293 ft 324 kts 269°
2026-05-06 00:48 40.21941 -75.26903 15927 ft 327 kts 269°
2026-05-06 00:48 40.21971 -75.29934 16610 ft 331 kts 269°
2026-05-06 00:49 40.22006 -75.32999 17314 ft 333 kts 269°
2026-05-06 00:49 40.22037 -75.36071 17984 ft 336 kts 268°
2026-05-06 00:49 40.22066 -75.39150 18589 ft 341 kts 268°
2026-05-06 00:49 40.22100 -75.42316 19222 ft 344 kts 268°
2026-05-06 00:50 40.22128 -75.45444 19978 ft 343 kts 268°
2026-05-06 00:50 40.22157 -75.48555 20773 ft 341 kts 268°
2026-05-06 00:50 40.22185 -75.51662 21582 ft 338 kts 268°
2026-05-06 00:50 40.22298 -75.54718 22286 ft 341 kts 278°
2026-05-06 00:51 40.23106 -75.57635 22988 ft 344 kts 287°
2026-05-06 00:51 40.23928 -75.60522 23762 ft 342 kts 287°
2026-05-06 00:51 40.24782 -75.63429 24427 ft 343 kts 287°
2026-05-06 00:51 40.25687 -75.66507 24392 ft 363 kts 287°
2026-05-06 00:52 40.26622 -75.69669 24417 ft 379 kts 287°
2026-05-06 00:52 40.27560 -75.72832 24437 ft 393 kts 287°
2026-05-06 00:52 40.28558 -75.76220 24456 ft 406 kts 287°
2026-05-06 00:52 40.29587 -75.79709 24520 ft 416 kts 287°
2026-05-06 00:53 40.30628 -75.83236 25015 ft 415 kts 287°
2026-05-06 00:53 40.31661 -75.86743 25761 ft 407 kts 288°
2026-05-06 00:53 40.32655 -75.90144 26421 ft 403 kts 288°
2026-05-06 00:53 40.33671 -75.93595 26905 ft 403 kts 288°
2026-05-06 00:54 40.34665 -75.96986 27380 ft 402 kts 288°
2026-05-06 00:54 40.35666 -76.00416 27885 ft 402 kts 288°
2026-05-06 00:54 40.36677 -76.03871 28475 ft 399 kts 288°
2026-05-06 00:54 40.37680 -76.07307 29138 ft 394 kts 288°
2026-05-06 00:55 40.38662 -76.10680 29673 ft 393 kts 289°
2026-05-06 00:55 40.39655 -76.14088 30165 ft 392 kts 289°
2026-05-06 00:55 40.40633 -76.17459 30742 ft 390 kts 289°
2026-05-06 00:55 40.41622 -76.20850 31479 ft 384 kts 289°
2026-05-06 00:56 40.42578 -76.24167 32192 ft 379 kts 289°
2026-05-06 00:56 40.43521 -76.27411 32931 ft 373 kts 289°
2026-05-06 00:56 40.44468 -76.30691 33546 ft 370 kts 289°
2026-05-06 00:56 40.45370 -76.33818 34111 ft 368 kts 289°
2026-05-06 00:57 40.46269 -76.36932 34695 ft 364 kts 290°
2026-05-06 00:57 40.47187 -76.40125 35279 ft 358 kts 290°
2026-05-06 00:57 40.48064 -76.43172 35772 ft 354 kts 290°
2026-05-06 00:57 40.48928 -76.46172 36239 ft 351 kts 290°
2026-05-06 00:58 40.49793 -76.49184 36767 ft 349 kts 291°
2026-05-06 00:58 40.50649 -76.52179 37316 ft 347 kts 291°
2026-05-06 00:58 40.51514 -76.55191 37873 ft 345 kts 291°
2026-05-06 00:58 40.52364 -76.58147 38450 ft 342 kts 291°
2026-05-06 00:59 40.53193 -76.61060 38995 ft 338 kts 292°
2026-05-06 00:59 40.54036 -76.64018 39488 ft 335 kts 292°
2026-05-06 00:59 40.54865 -76.66912 39824 ft 336 kts 291°
2026-05-06 00:59 40.55682 -76.69779 40023 ft 340 kts 291°
2026-05-06 01:00 40.56515 -76.72707 40267 ft 342 kts 291°
2026-05-06 01:00 40.57341 -76.75596 40576 ft 342 kts 291°
2026-05-06 01:00 40.58203 -76.78640 40831 ft 343 kts 291°
2026-05-06 01:00 40.59032 -76.81555 41092 ft 344 kts 291°
2026-05-06 01:01 40.59904 -76.84640 41290 ft 347 kts 290°
2026-05-06 01:01 40.60741 -76.87608 41559 ft 347 kts 291°
2026-05-06 01:01 40.61584 -76.90584 41825 ft 347 kts 291°
2026-05-06 01:01 40.62422 -76.93549 42063 ft 347 kts 291°
2026-05-06 01:02 40.63272 -76.96561 42251 ft 349 kts 290°
2026-05-06 01:02 40.64116 -76.99559 42418 ft 351 kts 290°
2026-05-06 01:02 40.64968 -77.02609 42632 ft 352 kts 290°
2026-05-06 01:02 40.65841 -77.05704 42833 ft 353 kts 290°
2026-05-06 01:03 40.66696 -77.08753 42854 ft 358 kts 290°
2026-05-06 01:03 40.68451 -77.15008 42854 ft 369 kts 290°
2026-05-06 01:04 40.70245 -77.21447 42853 ft 377 kts 290°
2026-05-06 01:04 40.71996 -77.27731 42861 ft 375 kts 290°
2026-05-06 01:05 40.73819 -77.34283 42868 ft 377 kts 290°
2026-05-06 01:05 40.75630 -77.40826 42866 ft 378 kts 290°
2026-05-06 01:06 40.77427 -77.47317 42863 ft 376 kts 290°
2026-05-06 01:06 40.79237 -77.53875 42866 ft 375 kts 290°
2026-05-06 01:07 40.81051 -77.60468 42859 ft 375 kts 290°
2026-05-06 01:07 40.82841 -77.66990 42877 ft 377 kts 289°
2026-05-06 01:08 40.84600 -77.73425 42879 ft 377 kts 289°
2026-05-06 01:08 40.86353 -77.79843 42874 ft 376 kts 289°
2026-05-06 01:09 40.88214 -77.86678 42877 ft 375 kts 289°
2026-05-06 01:09 40.90041 -77.93407 42867 ft 375 kts 289°
2026-05-06 01:10 40.92685 -77.99249 42888 ft 382 kts 318°
2026-05-06 01:10 40.95115 -78.00786 42893 ft 399 kts 339°
2026-05-06 01:10 40.97901 -78.01575 42876 ft 400 kts 339°
2026-05-06 01:11 41.03283 -78.03455 42863 ft 400 kts 338°
2026-05-06 01:11 41.08627 -78.05370 42861 ft 401 kts 337°
2026-05-06 01:12 41.14178 -78.07367 42857 ft 401 kts 338°
2026-05-06 01:12 41.19743 -78.09380 42865 ft 402 kts 338°
2026-05-06 01:13 41.25252 -78.11365 42860 ft 402 kts 338°
2026-05-06 01:13 41.30632 -78.13317 42863 ft 403 kts 337°
2026-05-06 01:14 41.38719 -78.16248 42857 ft 401 kts 337°
2026-05-06 01:14 41.44088 -78.18202 42852 ft 402 kts 338°
2026-05-06 01:15 41.49502 -78.20170 42854 ft 406 kts 337°
2026-05-06 01:15 41.54980 -78.22179 42853 ft 407 kts 338°
2026-05-06 01:16 41.60549 -78.24210 42851 ft 399 kts 337°
2026-05-06 01:16 41.66108 -78.26242 42855 ft 400 kts 337°
2026-05-06 01:17 41.71566 -78.28245 42854 ft 404 kts 337°
2026-05-06 01:17 41.77044 -78.30260 42852 ft 404 kts 338°
2026-05-06 01:18 41.82561 -78.32288 42852 ft 399 kts 337°
2026-05-06 01:18 41.87926 -78.34265 42857 ft 401 kts 337°
2026-05-06 01:19 41.93439 -78.36304 42727 ft 400 kts 337°
2026-05-06 01:19 41.96138 -78.37297 42275 ft 393 kts 337°
2026-05-06 01:19 41.98741 -78.38261 41849 ft 386 kts 336°
2026-05-06 01:20 42.01331 -78.39214 41423 ft 380 kts 336°
2026-05-06 01:20 42.03854 -78.40152 40981 ft 371 kts 335°
2026-05-06 01:20 42.06338 -78.41072 40407 ft 364 kts 335°
2026-05-06 01:20 42.08814 -78.41987 39613 ft 363 kts 334°
2026-05-06 01:21 42.11257 -78.42907 38694 ft 362 kts 334°
2026-05-06 01:21 42.13721 -78.43829 37294 ft 373 kts 334°
2026-05-06 01:21 42.16019 -78.44693 36390 ft 372 kts 334°
2026-05-06 01:21 42.18469 -78.45599 35840 ft 369 kts 334°
2026-05-06 01:22 42.20956 -78.46531 35280 ft 372 kts 334°
2026-05-06 01:22 42.23465 -78.47463 34712 ft 376 kts 334°
2026-05-06 01:22 42.26014 -78.48421 34063 ft 378 kts 335°
2026-05-06 01:22 42.28549 -78.49367 33384 ft 381 kts 335°
2026-05-06 01:23 42.31122 -78.50329 32707 ft 387 kts 335°
2026-05-06 01:23 42.33747 -78.51319 32025 ft 399 kts 335°
2026-05-06 01:23 42.36488 -78.52349 31358 ft 414 kts 336°
2026-05-06 01:23 42.39295 -78.53398 30691 ft 421 kts 336°
2026-05-06 01:24 42.42081 -78.54435 29975 ft 416 kts 336°
2026-05-06 01:24 42.44880 -78.55489 29238 ft 409 kts 336°
2026-05-06 01:24 42.47594 -78.56502 28529 ft 403 kts 335°
2026-05-06 01:24 42.50295 -78.57523 27820 ft 399 kts 336°
2026-05-06 01:25 42.52947 -78.58527 27121 ft 398 kts 336°
2026-05-06 01:25 42.55620 -78.59537 26429 ft 396 kts 336°
2026-05-06 01:25 42.58263 -78.60532 25735 ft 394 kts 336°
2026-05-06 01:25 42.60885 -78.61524 25046 ft 392 kts 336°
2026-05-06 01:26 42.63488 -78.62510 24371 ft 391 kts 336°
2026-05-06 01:26 42.66117 -78.63506 23696 ft 389 kts 336°
2026-05-06 01:26 42.68714 -78.64490 23043 ft 387 kts 337°
2026-05-06 01:26 42.71284 -78.65461 22405 ft 385 kts 336°
2026-05-06 01:27 42.73759 -78.66402 21795 ft 382 kts 336°
2026-05-06 01:27 42.75937 -78.67227 21249 ft 380 kts 335°
2026-05-06 01:27 42.77924 -78.67980 20766 ft 378 kts 336°
2026-05-06 01:27 42.80455 -78.68941 20147 ft 375 kts 335°
2026-05-06 01:28 42.82939 -78.69891 19517 ft 373 kts 335°
2026-05-06 01:28 42.85449 -78.70844 18890 ft 370 kts 336°
2026-05-06 01:28 42.87585 -78.71658 18352 ft 369 kts 336°
2026-05-06 01:28 42.90019 -78.72588 17747 ft 366 kts 335°
2026-05-06 01:29 42.92448 -78.73590 17114 ft 357 kts 327°
2026-05-06 01:29 42.94316 -78.75499 16793 ft 318 kts 300°
2026-05-06 01:29 42.95732 -78.77797 16668 ft 316 kts 302°
2026-05-06 01:29 42.97127 -78.80095 16541 ft 315 kts 300°
2026-05-06 01:30 42.98538 -78.82407 16429 ft 316 kts 301°
2026-05-06 01:30 42.99954 -78.84760 16297 ft 316 kts 300°
2026-05-06 01:30 43.01350 -78.87078 16166 ft 317 kts 301°
2026-05-06 01:30 43.02777 -78.89447 16040 ft 318 kts 300°
2026-05-06 01:31 43.04198 -78.91808 15897 ft 318 kts 301°
2026-05-06 01:31 43.05584 -78.94110 15761 ft 318 kts 300°
2026-05-06 01:31 43.06986 -78.96448 15629 ft 317 kts 301°
2026-05-06 01:31 43.08396 -78.98798 15493 ft 317 kts 301°
2026-05-06 01:32 43.09783 -79.01110 15360 ft 317 kts 300°
2026-05-06 01:32 43.11179 -79.03440 15217 ft 316 kts 300°
2026-05-06 01:32 43.12578 -79.05771 15075 ft 316 kts 300°
2026-05-06 01:32 43.13974 -79.08111 14934 ft 315 kts 301°
2026-05-06 01:33 43.15296 -79.10318 14806 ft 314 kts 300°
2026-05-06 01:33 43.16691 -79.12653 14669 ft 313 kts 300°
2026-05-06 01:33 43.18078 -79.14968 14533 ft 312 kts 300°
2026-05-06 01:33 43.19438 -79.17246 14400 ft 311 kts 300°
2026-05-06 01:34 43.20827 -79.19581 14263 ft 309 kts 300°
2026-05-06 01:34 43.22191 -79.21863 14127 ft 302 kts 300°
2026-05-06 01:34 43.23495 -79.24054 13995 ft 296 kts 300°
2026-05-06 01:34 43.24791 -79.26224 13873 ft 290 kts 300°
2026-05-06 01:35 43.26051 -79.28342 13749 ft 284 kts 300°
2026-05-06 01:35 43.27289 -79.30434 13630 ft 279 kts 300°
2026-05-06 01:35 43.28501 -79.32479 13512 ft 275 kts 300°
2026-05-06 01:35 43.29691 -79.34492 13399 ft 275 kts 300°
2026-05-06 01:36 43.31227 -79.36161 13283 ft 297 kts 326°
2026-05-06 01:36 43.33133 -79.37307 13171 ft 292 kts 324°
2026-05-06 01:36 43.34975 -79.38487 13052 ft 293 kts 325°
2026-05-06 01:36 43.36803 -79.39665 12858 ft 298 kts 324°
2026-05-06 01:37 43.38718 -79.40897 12322 ft 302 kts 326°
2026-05-06 01:37 43.40580 -79.42091 11801 ft 295 kts 325°
2026-05-06 01:37 43.42421 -79.43266 11279 ft 288 kts 325°
2026-05-06 01:37 43.44210 -79.44422 10770 ft 282 kts 325°
2026-05-06 01:38 43.45964 -79.45550 10276 ft 276 kts 325°
2026-05-06 01:38 43.47677 -79.46657 9791 ft 271 kts 325°
2026-05-06 01:38 43.49368 -79.47752 9315 ft 267 kts 326°
2026-05-06 01:38 43.51035 -79.48824 8840 ft 264 kts 326°
2026-05-06 01:39 43.52687 -79.49895 8384 ft 262 kts 327°
2026-05-06 01:39 43.54313 -79.50941 8028 ft 255 kts 327°
2026-05-06 01:39 43.55868 -79.51934 7967 ft 235 kts 327°
2026-05-06 01:39 43.57301 -79.52847 7954 ft 222 kts 326°
2026-05-06 01:40 43.58697 -79.53700 7947 ft 220 kts 334°
2026-05-06 01:40 43.60291 -79.53554 7982 ft 247 kts 17°
2026-05-06 01:40 43.61630 -79.51982 8006 ft 271 kts 53°
2026-05-06 01:40 43.62809 -79.49904 7979 ft 274 kts 45°
2026-05-06 01:41 43.64082 -79.47968 7967 ft 275 kts 44°
2026-05-06 01:41 43.65393 -79.46036 7854 ft 275 kts 43°
2026-05-06 01:41 43.66683 -79.44156 7597 ft 269 kts 43°
2026-05-06 01:41 43.67965 -79.42284 7335 ft 262 kts 43°
2026-05-06 01:42 43.69197 -79.40480 7078 ft 257 kts 44°
2026-05-06 01:42 43.70425 -79.38688 6813 ft 252 kts 43°
2026-05-06 01:42 43.71626 -79.36929 6552 ft 248 kts 43°
2026-05-06 01:42 43.72792 -79.35223 6244 ft 244 kts 43°
2026-05-06 01:43 43.73947 -79.33543 5923 ft 240 kts 44°
2026-05-06 01:43 43.75086 -79.31870 5596 ft 237 kts 44°
2026-05-06 01:43 43.76205 -79.30231 5268 ft 234 kts 43°
2026-05-06 01:43 43.77322 -79.28591 4928 ft 232 kts 44°
2026-05-06 01:44 43.78443 -79.26986 4592 ft 229 kts 37°
2026-05-06 01:44 43.79854 -79.26249 4267 ft 216 kts 355°
2026-05-06 01:44 43.81198 -79.26971 3917 ft 207 kts 321°
2026-05-06 01:44 43.82315 -79.28182 3558 ft 206 kts 320°
2026-05-06 01:45 43.83453 -79.29448 3150 ft 209 kts 320°
2026-05-06 01:45 43.84367 -79.30913 2982 ft 199 kts 289°
2026-05-06 01:45 43.84319 -79.32743 2995 ft 197 kts 251°
2026-05-06 01:45 43.83796 -79.34650 2996 ft 215 kts 250°
2026-05-06 01:46 43.83269 -79.36576 2980 ft 211 kts 250°
2026-05-06 01:46 43.82776 -79.38319 2975 ft 207 kts 250°
2026-05-06 01:46 43.82262 -79.40139 2970 ft 199 kts 250°
2026-05-06 01:46 43.81761 -79.41892 2973 ft 192 kts 250°
2026-05-06 01:47 43.81272 -79.43585 2967 ft 184 kts 250°
2026-05-06 01:47 43.80821 -79.45187 2966 ft 175 kts 250°
2026-05-06 01:47 43.80384 -79.46682 2964 ft 167 kts 244°
2026-05-06 01:47 43.79782 -79.48035 2971 ft 165 kts 236°
2026-05-06 01:48 43.79098 -79.49260 3009 ft 160 kts 232°
2026-05-06 01:48 43.78368 -79.50439 2976 ft 159 kts 229°
2026-05-06 01:48 43.77651 -79.51528 2915 ft 145 kts 228°
2026-05-06 01:48 43.76990 -79.52508 2722 ft 136 kts 227°
2026-05-06 01:49 43.76350 -79.53439 2543 ft 130 kts 228°
2026-05-06 01:49 43.75741 -79.54328 2372 ft 126 kts 228°
2026-05-06 01:49 43.75165 -79.55167 2215 ft 121 kts 228°
2026-05-06 01:49 43.74595 -79.55996 2057 ft 120 kts 229°
2026-05-06 01:50 43.74021 -79.56837 1901 ft 120 kts 227°
2026-05-06 01:50 43.73444 -79.57680 1739 ft 120 kts 228°
2026-05-06 01:50 43.72866 -79.58518 1572 ft 120 kts 226°
2026-05-06 01:50 43.72291 -79.59335 1409 ft 118 kts 226°
2026-05-06 01:51 43.71726 -79.60156 1251 ft 117 kts 227°
2026-05-06 01:51 43.71178 -79.60970 1117 ft 115 kts 226°
2026-05-06 01:51 43.70615 -79.61774 937 ft 117 kts 227°
2026-05-06 01:51 43.70053 -79.62590 763 ft 119 kts 225°
2026-05-06 01:52 43.69475 -79.63416 603 ft 118 kts 226°
2026-05-06 01:52 43.68943 -79.64188 541 ft 99 kts 226°
2026-05-06 01:52 43.68685 -79.64602 541 ft 27 kts 266°
2026-05-06 01:52 43.68687 -79.64854 543 ft 18 kts 274°
2026-05-06 01:53 43.68690 -79.64978 545 ft 10 kts 283°
2026-05-06 01:53 43.68740 -79.65026 547 ft 9 kts 359°
2026-05-06 01:53 43.68801 -79.65005 547 ft 9 kts 39°
2026-05-06 01:53 43.68849 -79.64938 547 ft 10 kts 46°
2026-05-06 01:54 43.68897 -79.64867 547 ft 10 kts 47°
2026-05-06 01:54 43.68903 -79.64860 547 ft 1 kts 47°
2026-05-06 01:54 43.68933 -79.64816 547 ft 9 kts 41°
2026-05-06 01:54 43.68936 -79.64812 547 ft 0 kts 38°
2026-05-06 01:56 43.68938 -79.64810 547 ft 1 kts 39°
2026-05-06 01:56 43.68962 -79.64805 548 ft 6 kts 337°
2026-05-06 01:56 43.69010 -79.64866 549 ft 8 kts 305°
2026-05-06 01:56 43.68980 -79.64906 549 ft 4 kts 165°
2026-05-06 01:57 43.68967 -79.64923 549 ft 2 kts 313°
2026-05-06 01:57 43.68968 -79.64924 549 ft 0 kts 314°